Wind_Speed
12 11 11 7 3 1 5 9 10 10 10 12 12 11 14 15 12 15 17 14 12 10 8 9 8 13 14 15 16 14 7 24 18 20 17 20 22 14 3 7 6 7 7 9 11
15 16 13 10 8 4 1 5 9 9 8 10 11 11 12 16 15 15 16 17 17 13 9 8 14 15 22 16 12 20 21 9 10 10 19 23 20 14 12 7 9 9 9 11 13
21 19 15 14 11 8 3 1 4 8 6 9 9 9 10 15 16 15 19 19 14 10 14 16 15 16 21 6 6 7 8 12 11 9 10 13 16 18 18 13 12 11 12 14 14
21 19 19 15 16 11 9 3 1 5 6 6 9 9 8 12 17 14 17 16 13 11 15 9 16 14 20 5 7 9 9 9 11 12 12 13 9 12 11 12 9 8 11 11 14
15 17 19 18 18 13 11 8 3 3 3 4 8 7 5 10 11 16 15 12 13 13 12 7 18 22 4 14 9 10 14 12 7 11 12 14 15 15 12 10 9 11 12 13 15
10 13 16 18 19 17 13 10 7 4 2 2 3 7 4 8 13 16 14 11 13 15 9 12 18 8 7 9 12 14 11 12 8 12 10 14 15 14 15 14 15 17 15 14 14
8 11 12 16 17 20 17 13 10 7 6 3 2 4 5 4 12 14 14 10 14 13 5 14 13 9 5 9 5 10 13 14 6 17 5 9 7 13 14 12 13 15 15 14 13
9 9 9 13 15 17 20 16 15 11 7 5 4 4 3 7 6 15 15 11 11 12 10 9 10 11 8 6 27 31 20 14 26 23 14 9 7 13 16 13 13 13 15 15 16
12 10 9 10 13 15 19 20 20 17 12 9 8 7 6 10 9 12 15 13 12 14 9 5 10 8 9 25 8 31 29 15 23 15 20 11 12 17 18 13 10 14 14 15 17
11 10 10 11 11 12 13 18 24 21 16 14 11 7 7 6 10 11 14 10 15 13 10 4 11 22 29 25 23 13 11 13 21 26 21 16 19 17 16 16 16 15 13 15 16
9 8 8 9 11 12 12 13 21 23 21 16 15 15 7 9 11 13 13 14 16 15 10 15 20 15 14 19 12 11 11 10 6 15 16 16 18 17 15 14 14 17 14 15 16
10 7 5 6 7 8 9 13 16 20 19 16 13 10 8 14 14 13 13 14 17 16 11 4 9 7 12 10 2 16 10 18 19 15 13 17 10 18 19 14 14 14 18 17 16
9 10 8 5 3 6 6 11 13 16 15 14 12 11 13 14 10 10 10 13 17 13 5 8 5 16 8 9 13 7 12 10 11 13 3 15 16 23 22 17 16 16 16 16 15
12 8 10 6 3 4 6 8 13 13 14 12 11 11 10 13 16 14 11 11 14 9 2 8 6 13 4 11 14 20 14 13 10 11 20 4 10 24 20 15 15 18 19 16 16
14 9 5 10 5 3 7 10 11 12 6 11 10 6 12 12 10 14 15 15 13 5 5 6 9 15 8 12 7 9 22 14 10 12 16 3 11 21 30 25 21 15 17 17 18
17 13 8 7 7 4 4 11 13 13 7 6 10 9 9 12 12 13 17 16 12 14 11 14 10 11 10 10 10 12 17 23 17 25 21 22 12 19 20 26 23 28 19 19 21
19 15 11 6 8 5 5 12 17 9 7 14 7 9 9 9 9 10 14 15 15 12 4 9 10 16 9 7 18 7 11 20 21 28 29 18 18 10 22 21 21 25 29 23 22
21 17 14 10 7 7 7 13 15 5 5 15 7 7 7 7 9 8 9 15 15 13 10 11 18 19 8 9 10 14 15 17 15 13 15 27 24 23 21 19 15 24 28 32 26
23 20 17 13 8 8 9 16 13 15 19 13 8 7 7 8 9 15 15 13 13 8 17 14 27 27 11 6 11 16 13 11 17 12 14 27 23 24 25 25 35 30 28 29 29
26 22 19 16 12 8 9 8 7 9 14 13 10 6 3 7 6 10 9 8 15 14 16 15 20 23 2 8 9 18 17 16 18 22 17 6 18 36 20 12 27 27 32 29 29
28 26 23 19 16 12 12 14 10 8 16 20 19 12 13 10 7 5 8 10 13 16 17 15 19 10 18 23 12 19 14 18 25 20 15 20 23 28 19 20 29 18 38 31 31
32 30 26 22 19 17 16 12 10 9 11 16 19 18 19 17 13 7 7 14 17 15 18 16 24 21 18 19 24 18 14 22 32 23 8 12 23 28 36 36 34 26 21 30 26
34 31 28 25 23 21 19 13 12 11 9 11 15 18 19 22 21 17 14 23 26 21 21 23 21 22 14 12 32 21 20 23 22 22 13 23 27 39 44 43 27 24 27 26 23
39 34 30 28 27 23 21 18 14 12 12 11 11 11 14 15 16 19 15 26 22 21 18 19 20 18 16 16 21 28 18 24 22 23 16 19 30 31 40 45 41 46 36 20 28
40 34 37 33 29 29 23 21 18 16 13 12 12 12 14 14 5 10 17 16 15 16 17 16 13 15 10 9 13 28 18 21 26 24 20 33 21 34 38 41 32 36 17 18 32
41 41 38 37 32 29 27 23 22 20 17 14 13 14 15 15 16 18 18 18 14 13 16 15 13 14 12 9 22 22 21 11 19 27 18 26 17 24 32 33 29 37 20 49 31
45 43 34 35 33 32 30 28 26 25 20 20 18 18 13 22 20 20 16 14 15 15 14 16 14 14 7 15 16 19 13 10 25 30 29 27 25 26 32 32 34 40 41 42 44
Wind_Direction
248 262 246 248 240 340 48 47 57 65 77 88 85 77 93 111 122 114 115 119 125 116 111 98 97 95 80 63 16 329 8 53 13 359 28 23 25 25 182 288 46 63 35 19 360
253 247 241 238 233 234 103 57 48 66 71 90 88 86 91 112 124 126 134 130 126 123 136 139 120 97 63 44 355 353 50 28 1 3 33 25 33 58 77 60 40 36 22 5 351
255 243 237 234 230 214 223 84 67 55 71 94 98 92 94 107 123 133 136 137 133 128 114 114 120 110 82 23 22 345 17 7 11 341 27 25 35 47 69 66 41 21 359 349 347
256 240 234 233 229 216 221 218 106 72 67 98 108 104 98 111 124 145 143 148 139 132 120 118 51 106 69 295 98 353 359 1 40 34 31 52 73 57 45 44 22 1 354 346 356
246 241 240 227 226 215 209 223 225 118 60 84 119 119 109 114 120 132 144 155 150 124 112 82 81 66 43 347 19 21 359 357 62 61 65 47 54 56 40 34 12 7 1 5 3
232 234 235 223 224 217 213 221 229 198 161 85 127 142 135 138 130 141 145 154 148 123 121 48 35 58 341 358 18 330 357 357 64 89 71 64 63 69 50 32 28 18 8 8 3
232 232 227 213 218 217 221 225 224 214 195 206 163 148 136 124 140 138 151 149 150 130 114 119 139 36 254 121 331 49 75 47 49 14 80 86 29 49 36 32 19 19 17 15 9
226 229 223 212 214 212 219 224 217 215 197 196 200 163 144 139 165 142 146 139 142 120 101 92 107 100 289 7 22 11 56 52 3 349 12 30 23 25 28 21 15 10 11 12 6
220 224 225 218 214 212 216 220 217 213 215 205 218 195 207 164 170 154 146 140 143 127 125 101 92 295 221 48 31 360 14 70 343 0 348 9 34 29 17 17 356 358 358 5 2
207 219 227 230 224 218 219 221 214 219 220 215 208 217 196 192 169 167 162 147 144 143 131 99 28 19 10 22 46 9 12 10 309 330 336 10 17 22 14 3 348 350 352 5 9
186 206 222 231 230 222 218 218 218 223 226 231 207 211 241 191 179 171 173 159 142 135 97 26 335 360 343 354 15 330 298 259 334 339 343 36 345 32 24 7 4 352 2 359 7
201 201 216 225 221 218 223 220 215 214 215 211 216 219 212 205 192 184 180 165 150 141 61 5 297 343 299 328 44 268 333 2 345 341 354 10 10 348 11 354 354 355 342 353 3
199 215 220 227 218 213 215 202 203 204 203 209 212 215 206 197 198 196 185 178 166 136 96 251 343 280 286 324 282 339 332 16 325 335 322 356 9 332 346 344 340 340 344 341 355
198 210 220 220 208 210 201 197 194 194 205 216 218 221 232 208 211 195 194 193 192 174 138 281 274 282 241 289 315 321 332 349 319 311 293 353 356 317 328 341 330 333 334 339 345
203 204 215 217 204 182 183 190 191 191 202 215 218 225 217 215 203 215 200 207 196 165 230 247 272 271 297 289 305 309 304 301 359 327 296 352 35 286 313 349 343 345 338 335 334
206 208 204 215 212 192 156 184 171 174 243 243 226 222 217 206 214 218 219 224 206 225 223 251 272 279 262 307 310 332 323 318 1 357 338 64 46 287 327 331 325 328 337 335 331
207 210 205 210 206 196 169 176 162 168 232 256 236 225 221 215 216 229 234 230 213 222 224 262 260 291 275 307 280 338 318 320 336 350 334 355 323 295 284 323 330 326 323 324 327
206 209 209 204 200 190 167 163 152 117 179 236 216 220 223 218 198 224 256 230 211 202 215 248 261 242 293 291 284 292 308 288 354 339 324 325 323 318 294 316 334 334 326 319 323
206 208 210 205 198 190 169 160 157 198 221 176 182 188 191 224 212 213 237 233 217 225 217 257 261 265 289 283 283 296 302 329 300 305 329 328 332 330 335 317 316 333 330 319 318
206 208 213 209 203 195 194 215 222 204 172 179 139 181 209 215 207 226 239 224 214 229 258 249 285 315 236 246 300 314 272 302 294 303 318 249 301 319 332 277 312 324 326 324 315
206 209 213 212 208 203 201 209 203 188 189 193 183 174 156 244 225 212 227 236 232 202 255 238 253 278 290 303 270 248 343 313 308 308 337 323 312 306 295 297 311 323 322 323 316
208 211 213 214 212 211 217 212 204 203 195 204 208 223 191 180 216 181 245 223 235 210 230 253 244 229 247 288 305 290 262 282 292 284 282 324 316 304 314 318 321 352 329 319 317
212 214 214 215 216 214 222 218 216 212 206 199 204 216 218 229 227 195 232 222 233 250 245 246 247 255 253 251 273 259 335 321 318 313 333 355 321 317 319 308 317 264 319 314 305
213 212 213 216 221 227 226 218 219 224 220 216 215 212 214 223 236 227 219 257 259 249 253 255 254 263 265 257 305 305 322 323 326 342 336 320 320 308 299 306 308 303 321 310 315
214 214 214 214 219 224 224 223 221 226 230 226 220 214 208 215 251 244 246 260 254 248 251 253 260 259 263 272 290 296 316 314 326 333 319 295 313 296 296 316 316 328 302 302 338
214 217 215 219 222 225 227 224 224 225 227 232 230 222 226 209 193 200 211 227 253 251 253 256 261 265 273 267 259 261 262 264 276 267 274 302 313 292 299 315 322 308 341 331 320
214 219 221 225 223 226 228 228 228 228 226 232 231 242 236 225 238 232 242 253 249 249 248 251 251 258 273 273 286 310 318 260 262 288 296 301 302 299 299 306 311 313 317 314 322
Height
5930 5933 5933 5932 5935 5937 5936 5935 5933 5933 5933 5932 5932 5933 5933 5934 5934 5934 5935 5935 5936 5936 5938 5939 5939 5938 5937 5935 5937 5931 5930 5920 5927 5923 5923 5921 5916 5912 5911 5912 5917 5917 5915 5912 5909
5927 5930 5931 5932 5933 5936 5937 5936 5935 5935 5935 5934 5934 5935 5935 5936 5936 5936 5937 5937 5938 5939 5939 5939 5938 5936 5937 5943 5942 5935 5930 5932 5929 5927 5924 5920 5920 5916 5914 5913 5913 5914 5913 5910 5907
5924 5926 5929 5931 5932 5935 5937 5937 5937 5936 5936 5936 5935 5936 5936 5938 5938 5939 5939 5940 5941 5941 5941 5940 5936 5935 5935 5947 5945 5939 5938 5935 5933 5930 5928 5926 5922 5919 5918 5916 5914 5911 5909 5907 5905
5921 5922 5926 5928 5930 5933 5936 5937 5937 5937 5937 5938 5937 5937 5937 5939 5940 5940 5941 5942 5942 5943 5943 5941 5942 5942 5938 5943 5942 5942 5939 5937 5935 5932 5929 5927 5923 5922 5919 5917 5915 5914 5911 5909 5907
5918 5919 5922 5925 5928 5931 5934 5936 5937 5937 5938 5938 5938 5938 5938 5940 5942 5941 5942 5944 5945 5944 5944 5942 5946 5944 5948 5946 5946 5942 5941 5939 5935 5932 5931 5927 5925 5924 5923 5921 5918 5916 5913 5910 5907
5915 5916 5918 5921 5925 5928 5932 5934 5936 5937 5937 5939 5939 5939 5939 5941 5941 5942 5944 5945 5946 5946 5944 5942 5944 5950 5951 5945 5943 5941 5941 5941 5936 5932 5931 5930 5928 5926 5924 5924 5921 5918 5915 5912 5910
5913 5915 5916 5918 5922 5925 5929 5932 5935 5937 5937 5938 5939 5940 5940 5942 5941 5942 5944 5945 5946 5948 5948 5948 5950 5954 5948 5935 5943 5940 5938 5939 5939 5934 5933 5932 5932 5925 5924 5924 5923 5920 5916 5913 5911
5912 5914 5914 5917 5920 5922 5925 5929 5932 5935 5936 5937 5939 5941 5942 5942 5942 5942 5944 5946 5947 5948 5948 5949 5951 5952 5945 5945 5945 5942 5937 5932 5936 5933 5935 5932 5933 5929 5924 5923 5921 5920 5917 5913 5911
5911 5912 5913 5916 5918 5920 5922 5926 5929 5932 5934 5936 5938 5939 5941 5941 5942 5943 5944 5946 5947 5949 5948 5949 5949 5943 5950 5947 5938 5944 5939 5932 5935 5938 5934 5935 5931 5927 5925 5923 5923 5920 5917 5914 5911
5910 5911 5913 5915 5916 5918 5920 5922 5925 5929 5932 5934 5936 5941 5941 5943 5942 5943 5945 5946 5947 5949 5950 5952 5949 5948 5946 5948 5949 5956 5950 5946 5945 5940 5937 5932 5930 5928 5926 5923 5920 5919 5916 5913 5910
5909 5910 5912 5913 5915 5916 5918 5920 5924 5927 5929 5933 5935 5937 5940 5940 5942 5944 5945 5947 5949 5950 5951 5949 5952 5952 5956 5950 5956 5955 5951 5949 5946 5943 5941 5937 5933 5929 5927 5925 5921 5916 5916 5912 5910
5909 5910 5912 5913 5914 5914 5916 5918 5920 5924 5928 5930 5933 5934 5938 5938 5941 5942 5944 5947 5949 5951 5950 5958 5959 5956 5957 5957 5954 5946 5947 5946 5944 5943 5941 5936 5935 5928 5928 5926 5922 5919 5915 5912 5909
5908 5910 5912 5913 5912 5914 5915 5916 5919 5923 5927 5929 5931 5933 5936 5939 5941 5942 5944 5946 5948 5950 5953 5957 5959 5957 5957 5955 5953 5951 5950 5946 5947 5942 5939 5939 5933 5930 5928 5925 5921 5918 5916 5912 5908
5909 5910 5911 5911 5913 5913 5915 5916 5919 5923 5926 5929 5930 5932 5934 5937 5938 5941 5943 5946 5947 5948 5953 5958 5960 5958 5958 5955 5951 5950 5948 5948 5947 5941 5930 5934 5936 5930 5928 5926 5921 5917 5914 5910 5907
5908 5910 5910 5911 5912 5913 5914 5916 5919 5922 5925 5928 5930 5933 5933 5936 5939 5940 5942 5943 5945 5948 5954 5958 5960 5958 5957 5950 5953 5953 5947 5944 5942 5941 5936 5932 5934 5929 5924 5921 5920 5918 5914 5911 5906
5907 5909 5910 5910 5912 5914 5914 5916 5919 5924 5926 5928 5929 5932 5933 5935 5937 5939 5940 5943 5944 5947 5951 5954 5954 5955 5954 5952 5953 5950 5946 5943 5937 5936 5925 5929 5932 5927 5923 5924 5921 5915 5913 5909 5905
5905 5907 5909 5910 5912 5913 5914 5916 5921 5923 5926 5927 5928 5930 5933 5934 5936 5938 5939 5941 5943 5946 5948 5953 5954 5956 5954 5953 5950 5947 5946 5944 5937 5936 5933 5930 5935 5928 5928 5925 5921 5916 5911 5909 5904
5902 5905 5908 5909 5911 5913 5914 5917 5921 5927 5927 5925 5928 5930 5931 5934 5936 5936 5938 5940 5942 5943 5949 5953 5952 5950 5952 5953 5951 5948 5947 5940 5939 5940 5939 5934 5930 5929 5925 5923 5920 5918 5912 5904 5902
5899 5903 5906 5909 5910 5912 5914 5916 5918 5921 5921 5925 5928 5930 5932 5934 5935 5937 5938 5939 5941 5943 5946 5949 5945 5947 5947 5949 5950 5948 5947 5944 5940 5939 5938 5934 5920 5924 5922 5916 5915 5911 5910 5905 5898
5895 5900 5904 5907 5909 5911 5913 5915 5916 5917 5921 5925 5928 5931 5934 5935 5935 5936 5937 5938 5940 5944 5947 5948 5944 5940 5941 5946 5948 5947 5943 5941 5938 5935 5933 5933 5930 5926 5920 5914 5910 5906 5906 5903 5898
5891 5896 5900 5904 5907 5910 5912 5913 5915 5917 5919 5922 5924 5929 5933 5937 5935 5938 5938 5939 5939 5943 5946 5947 5946 5946 5942 5943 5943 5934 5933 5933 5934 5934 5931 5931 5929 5920 5917 5906 5911 5903 5902 5899 5895
5886 5891 5896 5901 5905 5908 5909 5912 5914 5916 5918 5920 5923 5926 5928 5931 5934 5938 5939 5941 5938 5940 5942 5942 5941 5942 5944 5944 5935 5934 5936 5934 5927 5932 5926 5929 5926 5919 5912 5908 5907 5896 5899 5896 5891
5881 5887 5892 5897 5902 5904 5908 5911 5912 5915 5917 5919 5921 5923 5925 5928 5929 5932 5934 5934 5934 5936 5935 5936 5936 5937 5940 5943 5933 5932 5933 5931 5929 5924 5922 5922 5925 5913 5905 5904 5895 5886 5895 5889 5888
5875 5882 5889 5893 5897 5901 5905 5908 5911 5913 5916 5918 5919 5921 5923 5925 5927 5929 5930 5927 5930 5931 5932 5932 5933 5934 5935 5936 5934 5930 5931 5930 5926 5924 5921 5927 5923 5913 5903 5896 5894 5882 5885 5881 5876
5870 5878 5880 5887 5892 5896 5902 5905 5909 5911 5913 5916 5918 5920 5922 5924 5926 5927 5928 5927 5926 5927 5928 5929 5930 5930 5931 5932 5933 5925 5928 5927 5925 5923 5919 5921 5920 5905 5902 5898 5891 5879 5881 5859 5870
5864 5868 5876 5879 5887 5892 5897 5902 5905 5908 5911 5913 5916 5917 5918 5921 5922 5923 5922 5922 5925 5924 5924 5925 5927 5927 5928 5928 5926 5925 5926 5926 5926 5922 5918 5917 5916 5904 5899 5897 5882 5879 5844 5869 5871
5854 5861 5873 5877 5882 5887 5892 5896 5900 5904 5908 5909 5912 5913 5916 5915 5916 5918 5920 5921 5921 5921 5921 5921 5922 5923 5924 5925 5923 5922 5918 5920 5918 5917 5915 5912 5908 5903 5898 5892 5890 5880 5877 5873 5869